Home   Weather   Pasadena   Past weeks

Flag for USA Past Weather in Pasadena, Texas, USA — Yesterday and Last 2 Weeks

Now
81 °F

Thunderstorms. Overcast.


Feels Like: 87 °F
Forecast: 78 / 85 °F
Wind: 8 mph from Southwest

Location: Houston / Ellington

Current Time: Jun 26, 2017 at 10:45:41 pm

Latest Report: Jun 26, 2017 at 9:50 pm


Visibility: 10 mi

Pressure: 30.03 "Hg

Humidity: 89%

Dew Point: 77 °F

Location of PasadenaLocation

Past Weather in Pasadena — Graph

°F

Pasadena Temperature Yesterday

Maximum temperature yesterday: 86 °F (at 11:50 am)
Minimum temperature yesterday: 75 °F (at 6:50 am)
Average temperature yesterday: 81 °F

High & Low Weather Summary for the Past Weeks

 TemperatureHumidityPressure
High95 °F (Jun 15, 1:50 pm)100% (Jun 13, 5:50 am)30.18 "Hg (Jun 13, 5:50 am)
Low75 °F (Jun 21, 9:50 pm)47% (Jun 19, 4:50 pm)29.56 "Hg (Jun 22, 2:50 am)
Average84 °F75%29.91 "Hg
* Reported Jun 11 9:50 pm — Jun 26 9:30 pm, Pasadena. Weather by CustomWeather, © 2017

Note: Actual official high and low records may vary slightly from our data, if they occured in-between our weather recording intervals... More about our weather records

Advertising

Pasadena Weather History for the Previous 24 Hours

Scroll right to see more
 ConditionsComfort  
Time TempWeatherWind HumidityBarometerVisibility
9:30 pm
Mon, Jun 26
81 °FThunderstorms. Partly cloudy.6 mph89%30.00 "Hg10 mi
8:50 pm81 °FPartly cloudy.6 mph89%30.00 "Hg10 mi
7:50 pm81 °FPartly sunny.3 mph84%30.01 "Hg10 mi
6:50 pm81 °FBroken clouds.6 mph84%30.01 "Hg10 mi
5:50 pm84 °FBroken clouds.6 mph79%30.00 "Hg10 mi
4:50 pm86 °FBroken clouds.6 mph70%30.01 "Hg10 mi
3:50 pm86 °FPartly sunny.12 mph70%30.03 "Hg10 mi
2:50 pm88 °FPartly sunny.10 mph66%30.04 "Hg10 mi
1:50 pm88 °FPartly sunny.8 mph66%30.06 "Hg10 mi
12:50 pm90 °FBroken clouds.9 mph63%30.10 "Hg10 mi
11:50 am86 °FBroken clouds.8 mph75%30.12 "Hg10 mi
10:50 am86 °FBroken clouds.9 mph75%30.12 "Hg10 mi
9:50 am84 °FBroken clouds.7 mph79%30.12 "Hg10 mi
8:50 am84 °FBroken clouds.7 mph79%30.12 "Hg10 mi
7:50 am79 °FBroken clouds.6 mph79%30.11 "Hg10 mi
5:50 am75 °FPartly cloudy.No wind89%30.10 "Hg10 mi
12:50 am77 °FPartly cloudy.6 mph83%30.12 "Hg10 mi
10:50 pm
Sun, Jun 25
79 °FPassing clouds.7 mph84%30.13 "Hg10 mi
Weather by CustomWeather, © 2017

See weather overviewHow to use our weather pages